Location: Baia Mare
(47.6567°N, 23.5850°E)
Time: 02:28:21

ISS - Pass Details

Date: 11 March 2018
Orbit: 403 x 406 km, 51.6° (Epoch: 24 March)

Event Time Altitude Azimuth Distance (km) Brightness Sun altitude
Exits shadow 04:12:04 24° 50° (NE) 884 -1.5 -26.3°
Drops below altitude 10° 04:13:39 10° 64° (ENE) 1,468 0.0 -26.1°
Sets 04:15:48 0° 71° (ENE) 2,329 1.4 -25.7°
